User: anonymous   Login
Location: Pian di Sc�
(43.6333°N, 11.5500°E)
Time: 10:05:27
(UTC+00:00)
Language:

Cosmos 1733 - Orbit

View from above orbital plane
View from above orbital plane
View from above satellite
View from above satellite

Ground track
Ground track

The orbit data is extracted from the following two-line orbital elements,

1 16611U 86018A   20305.12696625  .00000648  00000-0  30654-4 0  9995
2 16611  82.4882 258.1322 0013228  32.8178 327.3874 15.17523222895755
Epoch (UTC): 31 October 2020 03:02:49
Eccentricity: 0.0013228
inclination: 82.4882°
perigee height: 504 km
apogee height: 522 km
right ascension of ascending node: 258.1322°
argument of perigee: 32.8178°
revolutions per day: 15.17523222
mean anomaly at epoch: 327.3874°
orbit number at epoch: 89575

The dashed part of the orbit path shows where the satellite is in the earth's shadow,  

DLR